Terug naar catalogus

CZ-6A DEB

ActiefPO
NORAD 61265·DEBRIS·🇨🇳 China

Gelanceerd Aug 6, 2024 vanaf Taiyuan Satellite Launch Center

Loading…

Volgende Passages (komende 24 uur)

TLE

VersSource: Space-Track

Epoch: Sep 14, 2026, 11:02 UTC

1 61265U 24140SA  26257.46027035  .00005700  00000-0  11450-2 0  9995
2 61265  88.9472 254.9231 0057882 327.4495  32.3153 14.60483173108856

Volg CZ-6A DEB in realtime met AllMySat

Download on the App Store